User: anonymous   Login
Location: NJAA Observatory
(40.6819°N, 74.8979°W)
Time: 00:02:13
(UTC-05:00)
Language:

CENTAUR R/B - Orbit

View from above orbital plane
View from above orbital plane
View from above satellite
View from above satellite

Ground track
Ground track

The orbit data is extracted from the following two-line orbital elements,

1 26906U 01040B   15058.75009533 0.00000080  00000-0  10951-3 0    09
2 26906  63.4635 326.3949 0278000 344.4960  15.5040 13.43945884    09
Epoch (UTC): 27 February 2015 18:00:08
Eccentricity: 0.0278000
inclination: 63.4635°
perigee height: 887 km
apogee height: 1302 km
right ascension of ascending node: 326.3949°
argument of perigee: 344.4960°
revolutions per day: 13.43945884
mean anomaly at epoch: 15.5040°
orbit number at epoch: 0

The dashed part of the orbit path shows where the satellite is in the earth's shadow,  

DLR